• In Hungary
  • List of Countries
  • For 7 days
  • Water Temperature
  • Satellite Maps
  • Weather Map
  • News
  • Weather Widgets
  • user-avatar
    Login

    Hourly Weather Nizhnie Prisady

    Today, 22 October, Monday

    Time Temperature Precipitation Wind Pressure Humidity
    00:00 +4°C° 0 mm 1 mps 755 mmHg 82%
    01:00 +4°C° 0 mm 1 mps 755 mmHg 84%
    02:00 +4°C° 0 mm 1 mps 755 mmHg 85%
    03:00 +5°C° 0 mm 1 mps 755 mmHg 82%
    04:00 +4°C° 0 mm 1 mps 755 mmHg 82%
    05:00 +4°C° 0 mm 1 mps 755 mmHg 83%
    06:00 +4°C° 0 mm 1 mps 754 mmHg 83%
    07:00 +5°C° 0 mm 1 mps 754 mmHg 82%
    08:00 +5°C° 0 mm 1 mps 754 mmHg 80%
    09:00 +5°C° 0 mm 1 mps 754 mmHg 77%
    10:00 +6°C° 0 mm 1 mps 754 mmHg 72%
    11:00 +7°C° 0 mm 1 mps 754 mmHg 68%
    12:00 +8°C° 0 mm 1 mps 753 mmHg 64%
    13:00 +9°C° 0 mm 1 mps 753 mmHg 62%
    14:00 +8°C° 0 mm 2 mps 752 mmHg 61%
    15:00 +9°C° 0 mm 2 mps 751 mmHg 58%
    16:00 +8°C° 0 mm 2 mps 751 mmHg 63%
    17:00 +7°C° 0 mm 2 mps 750 mmHg 68%
    18:00 +6°C° 0 mm 2 mps 750 mmHg 72%
    19:00 +5°C° 0 mm 2 mps 749 mmHg 74%
    20:00 +5°C° 0 mm 2 mps 749 mmHg 76%
    21:00 +4°C° 0 mm 2 mps 749 mmHg 78%
    22:00 +4°C° 0 mm 2 mps 748 mmHg 79%
    23:00 +3°C° 0 mm 3 mps 748 mmHg 80%

    Tomorrow, 23 October, Tuesday

    Time Temperature Precipitation Wind Pressure Humidity
    00:00 +2°C° 0 mm 3 mps 747 mmHg 81%
    01:00 +2°C° 0 mm 3 mps 747 mmHg 82%
    02:00 +2°C° 0 mm 3 mps 746 mmHg 83%
    03:00 +2°C° 0 mm 3 mps 745 mmHg 84%
    04:00 +1°C° 0 mm 3 mps 745 mmHg 84%
    05:00 +1°C° 0 mm 3 mps 744 mmHg 85%
    06:00 +1°C° 0 mm 3 mps 743 mmHg 86%
    07:00 +1°C° 0 mm 4 mps 743 mmHg 84%
    08:00 +1°C° 0 mm 4 mps 742 mmHg 82%
    09:00 +3°C° 0 mm 4 mps 742 mmHg 80%
    10:00 +3°C° 0 mm 5 mps 742 mmHg 77%
    11:00 +5°C° 0 mm 5 mps 741 mmHg 74%
    12:00 +6°C° 0 mm 5 mps 741 mmHg 70%
    13:00 +6°C° 0 mm 5 mps 740 mmHg 71%
    14:00 +6°C° 0 mm 5 mps 739 mmHg 72%
    15:00 +6°C° 0 mm 5 mps 739 mmHg 73%
    16:00 +6°C° 0.1 mm 4 mps 738 mmHg 76%
    17:00 +5°C° 0.1 mm 4 mps 738 mmHg 79%
    18:00 +5°C° 0.1 mm 4 mps 737 mmHg 82%
    19:00 +5°C° 0.1 mm 4 mps 737 mmHg 83%
    20:00 +5°C° 0.1 mm 4 mps 736 mmHg 84%
    21:00 +4°C° 0.1 mm 4 mps 736 mmHg 86%
    22:00 +4°C° 0 mm 4 mps 735 mmHg 86%
    23:00 +4°C° 0 mm 4 mps 734 mmHg 86%

    Day after tomorrow, 24 October, Wednesday

    Time Temperature Precipitation Wind Pressure Humidity
    00:00 +4°C° 0 mm 4 mps 733 mmHg 87%
    01:00 +4°C° 0.1 mm 4 mps 733 mmHg 85%
    02:00 +4°C° 0.1 mm 4 mps 732 mmHg 83%
    03:00 +3°C° 0.1 mm 5 mps 731 mmHg 81%
    04:00 +3°C° 0.1 mm 5 mps 730 mmHg 80%
    05:00 +3°C° 0.1 mm 5 mps 729 mmHg 80%
    06:00 +3°C° 0.1 mm 5 mps 729 mmHg 80%
    07:00 +3°C° 0.1 mm 5 mps 728 mmHg 79%
    08:00 +3°C° 0.1 mm 6 mps 727 mmHg 78%
    09:00 +4°C° 0.1 mm 6 mps 727 mmHg 77%
    10:00 +4°C° 0.4 mm 6 mps 726 mmHg 78%
    11:00 +4°C° 0.4 mm 7 mps 726 mmHg 79%
    12:00 +5°C° 0.4 mm 7 mps 725 mmHg 80%
    13:00 +5°C° 0.9 mm 6 mps 725 mmHg 81%
    14:00 +5°C° 0.9 mm 6 mps 725 mmHg 82%
    15:00 +5°C° 0.9 mm 6 mps 724 mmHg 83%
    16:00 +6°C° 0.1 mm 5 mps 724 mmHg 84%
    17:00 +6°C° 0.1 mm 4 mps 724 mmHg 86%
    18:00 +5°C° 0.1 mm 3 mps 724 mmHg 87%
    19:00 +5°C° 0.5 mm 3 mps 724 mmHg 90%
    20:00 +5°C° 0.5 mm 3 mps 724 mmHg 92%
    21:00 +5°C° 0.5 mm 3 mps 724 mmHg 94%
    22:00 +6°C° 0.5 mm 2 mps 724 mmHg 95%
    23:00 +6°C° 0.5 mm 2 mps 724 mmHg 95%

    25 October, Thursday

    Time Temperature Precipitation Wind Pressure Humidity
    00:00 +7°C° 0.5 mm 1 mps 724 mmHg 96%
    01:00 +6°C° 0.9 mm 2 mps 723 mmHg 96%
    02:00 +6°C° 0.9 mm 2 mps 723 mmHg 96%
    03:00 +5°C° 0.9 mm 3 mps 722 mmHg 96%
    04:00 +5°C° 3.4 mm 4 mps 721 mmHg 96%
    05:00 +5°C° 3.4 mm 5 mps 721 mmHg 95%
    06:00 +4°C° 3.4 mm 6 mps 720 mmHg 94%
    07:00 +4°C° 1.4 mm 6 mps 719 mmHg 92%
    08:00 +5°C° 1.4 mm 5 mps 719 mmHg 90%
    09:00 +6°C° 1.4 mm 5 mps 718 mmHg 87%
    10:00 +5°C° 0.9 mm 5 mps 718 mmHg 86%
    11:00 +4°C° 0.9 mm 6 mps 718 mmHg 85%
    12:00 +4°C° 0.9 mm 6 mps 718 mmHg 84%
    13:00 +3°C° 1 mm 7 mps 718 mmHg 83%
    14:00 +2°C° 1 mm 9 mps 719 mmHg 81%
    15:00 +2°C° 1 mm 10 mps 719 mmHg 80%
    16:00 +1°C° 0.4 mm 10 mps 721 mmHg 80%
    17:00 +1°C° 0.4 mm 10 mps 722 mmHg 79%
    18:00 0°C° 0.4 mm 10 mps 723 mmHg 79%
    19:00 0°C° 0 mm 9 mps 724 mmHg 78%
    20:00 0°C° 0 mm 8 mps 725 mmHg 77%
    21:00 0°C° 0 mm 8 mps 726 mmHg 76%
    22:00 0°C° 0 mm 7 mps 727 mmHg 77%
    23:00 0°C° 0 mm 7 mps 727 mmHg 78%

    26 October, Friday

    Time Temperature Precipitation Wind Pressure Humidity
    00:00 0°C° 0 mm 7 mps 728 mmHg 78%
    01:00 +1°C° 0 mm 6 mps 729 mmHg 78%
    02:00 +1°C° 0 mm 6 mps 729 mmHg 79%
    03:00 +1°C° 0 mm 6 mps 729 mmHg 79%
    04:00 -1°C° 0 mm 6 mps 730 mmHg 80%
    05:00 -1°C° 0 mm 6 mps 731 mmHg 80%
    06:00 -1°C° 0 mm 6 mps 731 mmHg 81%
    07:00 -1°C° 0 mm 6 mps 732 mmHg 81%
    08:00 -1°C° 0 mm 6 mps 733 mmHg 80%
    09:00 -1°C° 0 mm 6 mps 733 mmHg 80%
    10:00 +1°C° 0 mm 6 mps 734 mmHg 79%
    11:00 +1°C° 0 mm 6 mps 735 mmHg 78%
    12:00 +1°C° 0 mm 6 mps 735 mmHg 76%
    13:00 +2°C° 0 mm 5 mps 736 mmHg 75%
    14:00 +2°C° 0 mm 5 mps 736 mmHg 74%
    15:00 +2°C° 0 mm 5 mps 736 mmHg 73%
    16:00 +2°C° 0.1 mm 5 mps 737 mmHg 76%
    17:00 +3°C° 0.1 mm 4 mps 737 mmHg 79%
    18:00 +3°C° 0.1 mm 4 mps 738 mmHg 82%
    19:00 +1°C° 0.1 mm 4 mps 738 mmHg 83%
    20:00 +1°C° 0.1 mm 4 mps 739 mmHg 84%
    21:00 +1°C° 0.1 mm 4 mps 739 mmHg 86%
    22:00 +1°C° 0 mm 4 mps 740 mmHg 85%
    23:00 +1°C° 0 mm 4 mps 740 mmHg 84%

    27 October, Saturday

    Time Temperature Precipitation Wind Pressure Humidity
    00:00 +1°C° 0 mm 4 mps 741 mmHg 83%
    01:00 0°C° 0 mm 4 mps 741 mmHg 84%
    02:00 0°C° 0 mm 4 mps 742 mmHg 85%
    03:00 0°C° 0 mm 4 mps 742 mmHg 86%
    04:00 0°C° 0 mm 4 mps 743 mmHg 88%
    05:00 -1°C° 0 mm 4 mps 743 mmHg 90%
    06:00 -1°C° 0 mm 4 mps 743 mmHg 93%
    07:00 -1°C° 0 mm 4 mps 744 mmHg 92%
    08:00 0°C° 0 mm 4 mps 744 mmHg 91%
    09:00 0°C° 0 mm 4 mps 745 mmHg 90%
    10:00 +1°C° 0 mm 4 mps 745 mmHg 86%
    11:00 +2°C° 0 mm 5 mps 745 mmHg 81%
    12:00 +3°C° 0 mm 5 mps 745 mmHg 77%
    13:00 +5°C° 0 mm 5 mps 745 mmHg 76%
    14:00 +5°C° 0 mm 5 mps 745 mmHg 76%
    15:00 +6°C° 0 mm 5 mps 745 mmHg 75%
    16:00 +5°C° 0 mm 5 mps 745 mmHg 77%
    17:00 +5°C° 0 mm 5 mps 745 mmHg 80%
    18:00 +5°C° 0 mm 5 mps 744 mmHg 82%
    19:00 +5°C° 0 mm 5 mps 744 mmHg 82%
    20:00 +4°C° 0 mm 6 mps 744 mmHg 82%
    21:00 +4°C° 0 mm 6 mps 743 mmHg 82%
    22:00 +4°C° 0 mm 6 mps 743 mmHg 83%
    23:00 +4°C° 0 mm 6 mps 743 mmHg 85%

    28 October, Sunday

    Time Temperature Precipitation Wind Pressure Humidity
    00:00 +4°C° 0 mm 6 mps 743 mmHg 87%
    01:00 +4°C° 0.3 mm 6 mps 743 mmHg 89%
    02:00 +5°C° 0.3 mm 6 mps 742 mmHg 90%
    03:00 +5°C° 0.3 mm 6 mps 742 mmHg 92%
    04:00 +7°C° 0.2 mm 6 mps 742 mmHg 93%
    05:00 +8°C° 0.2 mm 6 mps 741 mmHg 93%
    06:00 +8°C° 0.2 mm 6 mps 741 mmHg 93%
    07:00 +8°C° 0.3 mm 6 mps 741 mmHg 93%
    08:00 +9°C° 0.3 mm 6 mps 741 mmHg 92%
    09:00 +9°C° 0.3 mm 6 mps 741 mmHg 92%
    10:00 +10°C° 0.2 mm 7 mps 741 mmHg 90%
    11:00 +10°C° 0.2 mm 7 mps 741 mmHg 88%
    12:00 +10°C° 0.2 mm 7 mps 741 mmHg 86%
    13:00 +11°C° 0.1 mm 7 mps 741 mmHg 85%
    14:00 +11°C° 0.1 mm 7 mps 741 mmHg 84%
    15:00 +11°C° 0.1 mm 7 mps 740 mmHg 83%
    16:00 +11°C° 0 mm 7 mps 740 mmHg 83%
    17:00 +11°C° 0 mm 7 mps 740 mmHg 82%
    18:00 +11°C° 0 mm 7 mps 740 mmHg 82%
    19:00 +11°C° 0.2 mm 7 mps 740 mmHg 82%
    20:00 +12°C° 0.2 mm 7 mps 740 mmHg 81%
    21:00 +12°C° 0.2 mm 7 mps 740 mmHg 81%
    22:00 +12°C° 0 mm 7 mps 740 mmHg 82%
    23:00 +12°C° 0 mm 7 mps 740 mmHg 83%
    Show more